User: anonymous   Login
Location: Katherine
(14.4670°S, 132.2670°E)
Time: 10:55:05
(UTC+09:30)
Language:

ISS - Orbit

View from above orbital plane
View from above orbital plane
View from above satellite
View from above satellite

Ground track
Ground track

The orbit data is extracted from the following two-line orbital elements,

1 25544U 98067A   18348.20691317  .00016717  00000-0  10270-3 0  9022
2 25544  51.6357 201.6036 0004920 143.6572 216.4916 15.54072253 26506
Epoch (UTC): 14 December 2018 04:57:57
Eccentricity: 0.0004920
inclination: 51.6357°
perigee height: 401 km
apogee height: 408 km
right ascension of ascending node: 201.6036°
argument of perigee: 143.6572°
revolutions per day: 15.54072253
mean anomaly at epoch: 216.4916°
orbit number at epoch: 2650

The dashed part of the orbit path shows where the satellite is in the earth's shadow,  

DLR